Regional Weather Roundup
Issued by NWS

Home | Current Version | Previous Version | Text Only | Print | Product List | Glossary Off
Versions: 1 2 3 4 5 6 7 8 9 10 11 12 13 14 15 16 17 18 19 20 21 22 23 24 25 26 27

000
ASUS45 KPSR 011810
RWRAZ

ARIZONA HOURLY REGIONAL WEATHER ROUNDUP
NATIONAL WEATHER SERVICE PHOENIX AZ
1100 AM MST THU DEC 01 2016

NOTE: FAIR INDICATES FEW OR NO CLOUDS BELOW 12,000 FEET WITH NO
SIGNIFICANT WEATHER AND/OR OBSTRUCTIONS TO VISIBILITY.

AZZ001>003-036-011900-
NORTHWEST ARIZONA

CITY           SKY/WX    TMP DP  RH WIND       PRES   REMARKS
BULLHEAD CITY  SUNNY     50  25  37 CALM      30.05S
KINGMAN        SUNNY     44  13  28 N3        30.02R
6HR MIN TEMP:  26; 6HR MAX TEMP:  44;

$$

AZZ004>008-015-016-018-011900-
NORTH CENTRAL ARIZONA

CITY           SKY/WX    TMP DP  RH WIND       PRES   REMARKS
GRAND CANYON   MOSUNNY   34  17  50 CALM      30.00F
PRESCOTT       CLOUDY    36  22  56 CALM      30.00F
6HR MIN TEMP:  23; 6HR MAX TEMP:  36;

FLAGSTAFF      PTSUNNY   33  15  47 CALM      29.98F
6HR MIN TEMP:   9; 6HR MAX TEMP:  33;

PAYSON         PTSUNNY   41  14  33 E5        30.02F
PAGE           SUNNY     37  15  40 CALM      30.03F
6HR MIN TEMP:  27; 6HR MAX TEMP:  37;

$$

AZZ009>014-017-011900-
NORTHEAST ARIZONA

CITY           SKY/WX    TMP DP  RH WIND       PRES   REMARKS
WINSLOW        CLOUDY    32  19  58 VRB3      30.03F
6HR MIN TEMP:  14; 6HR MAX TEMP:  32;

SAINT JOHNS    PTSUNNY   37  18  46 NE5       30.00F WCI  33
6HR MIN TEMP:  13; 6HR MAX TEMP:  37;

WINDOW ROCK    MOSUNNY   33  16  49 CALM      30.01F
6HR MIN TEMP:   9; 6HR MAX TEMP:  33;

SHOW LOW       PTSUNNY   39   7  26 SW10      30.00F WCI  32
$$

AZZ023-011900-
GREATER PHOENIX AREA

CITY           SKY/WX    TMP DP  RH WIND       PRES   REMARKS
PHOENIX        PTSUNNY   53  26  35 E7        29.98F
6HR MIN TEMP:  43; 6HR MAX TEMP:  53;

BUCKEYE        PTSUNNY   54  30  40 E3        30.02R
GLENDALE       PTSUNNY   52  30  43 CALM      30.01F
LUKE AFB       PTSUNNY   51  30  44 CALM      29.98F
6HR MIN TEMP:  38; 6HR MAX TEMP:  51; 6HR PCP: TRACE;

DEER VALLEY    PTSUNNY   52  25  35 CALM      29.98F
6HR MIN TEMP:  37; 6HR MAX TEMP:  53;

MESA-FALCON    PTSUNNY  N/A N/A N/A NW6       29.97F
CHANDLER       PTSUNNY   52  27  37 NE6       30.00F
$$

AZZ027-028-011900-
SOUTHWEST MARICOPA COUNTY AND PINAL COUNTY

CITY           SKY/WX    TMP DP  RH WIND       PRES   REMARKS
CASA GRANDE    NOT AVBL
GILA BEND      PTSUNNY   53  27  37 N5        30.00R
6HR MIN TEMP:  39; 6HR MAX TEMP:  53;

$$

AZZ503-504-507>509-011900-
SOUTHEAST ARIZONA

CITY           SKY/WX    TMP DP  RH WIND       PRES   REMARKS
TUCSON         SUNNY     55  17  22 CALM      29.98F
6HR MIN TEMP:  33; 6HR MAX TEMP:  55;

DAVIS-MONTHAN  SUNNY     55  18  22 VRB2      29.97F
6HR MIN TEMP:  33; 6HR MAX TEMP:  55;

RYAN FIELD     SUNNY     55  19  24 CALM      29.99F
NOGALES        SUNNY     59  21  23 S7        29.98S
6HR MIN TEMP:  27; 6HR MAX TEMP:  59;

SIERRA VISTA   SUNNY     53  20  27 N6        30.00F
6HR MIN TEMP:  34; 6HR MAX TEMP:  54;

DOUGLAS        SUNNY     54  31  41 SE7       29.99F
6HR MIN TEMP:  19; 6HR MAX TEMP:  54;

SAFFORD        MOSUNNY   50  17  27 S8        30.00F
6HR MIN TEMP:  24; 6HR MAX TEMP:  50;

$$

AZZ020-021-025-026-031-011900-
SOUTHWEST ARIZONA

CITY           SKY/WX    TMP DP  RH WIND       PRES   REMARKS
YUMA           MOSUNNY   60  23  24 N8        30.01S
6HR MIN TEMP:  45; 6HR MAX TEMP:  60;

$$

CAZ031-033-041-043-047-048-061-011900-
SOUTHERN CALIFORNIA

CITY           SKY/WX    TMP DP  RH WIND       PRES   REMARKS
DOWNTOWN L.A.  PTSUNNY   59  40  49 CALM      30.02R
6HR MIN TEMP:  51; 6HR MAX TEMP:  59;

L.A. AIRPORT   PTSUNNY   60  45  57 E6        30.01S
6HR MIN TEMP:  51; 6HR MAX TEMP:  61;

SAN DIEGO      MOSUNNY   59  42  53 CALM      30.03R
6HR MIN TEMP:  51; 6HR MAX TEMP:  59;

BURBANK        PTSUNNY   56  32  40 CALM      30.02R
6HR MIN TEMP:  46; 6HR MAX TEMP:  56;

ONTARIO        PTSUNNY   56  38  50 CALM      30.02R
6HR MIN TEMP:  46; 6HR MAX TEMP:  56;

RIVERSIDE      PTSUNNY   54  40  59 W3        30.02R
6HR MIN TEMP:  45; 6HR MAX TEMP:  55;

PALM SPRINGS   PTSUNNY   59  28  30 CALM      30.03R
6HR MIN TEMP:  48; 6HR MAX TEMP:  59;

EL CENTRO NAS  MOSUNNY   61  29  29 NW3       30.03R
6HR MIN TEMP:  42; 6HR MAX TEMP:  61;

IMPERIAL         N/A     60  50  69 MISG      30.01R
6HR MIN TEMP:  42; 6HR MAX TEMP:  60;

BLYTHE         CLOUDY    51  19  28 SW7       30.03R
6HR MIN TEMP:  37; 6HR MAX TEMP:  51;

NEEDLES        SUNNY     55  23  28 N6        30.04R
6HR MIN TEMP:  41; 6HR MAX TEMP:  55;

$$

NVZ020-UTZ003-011900-
SOUTHERN NEVADA-UTAH

CITY           SKY/WX    TMP DP  RH WIND       PRES   REMARKS
LAS VEGAS      MOSUNNY   50  18  28 CALM      30.05R
6HR MIN TEMP:  38; 6HR MAX TEMP:  50;

SALT LAKE CITY LGT SNOW  32  28  85 CALM      30.10S FOG
6HR MIN TEMP:  31; 6HR MAX TEMP:  33; 6HR PCP:  0.01;

$$

NMZ009-TXZ055-011900-
NEW MEXICO-WEST TEXAS

CITY           SKY/WX    TMP DP  RH WIND       PRES   REMARKS
ALBUQUERQUE    PTSUNNY   35  12  38 CALM      30.04F
6HR MIN TEMP:  22; 6HR MAX TEMP:  35;

EL PASO        MOSUNNY   48  14  25 CALM      30.02F
6HR MIN TEMP:  27; 6HR MAX TEMP:  48;

$$


........................KEY........................
SKY/WX - SKY CONDITION/WEATHER
TMP    - TEMPERATURE IN FAHRENHEIT
DP     - DEW POINT IN FAHRENHEIT
RH     - RELATIVE HUMIDITY IN PERCENT
WIND   - DIRECTION AND SPEED IN MILES PER HOUR (MPH)
VRB    - VARIABLE WIND DIRECTION
PRES   - MEAN SEA LEVEL PRESSURE IN INCHES OF MERCURY
         F - FALLING PRESSURE   R - RISING PRESSURE
         S - STEADY PRESSURE
VSB    - VISIBILITY IN MILES
HX     - HEAT INDEX IN FAHRENHEIT
WCI    - WIND CHILL INDEX IN FAHRENHEIT
TC     - TEMPERATURE IN CELSIUS WHICH IS ALSO KNOWN AS
         TEMPERATURE IN CENTIGRADE
AFB    - AIR FORCE BASE
         LUKE AFB IS LUKE AIR FORCE BASE
         DAVIS-MONTHAN IS DAVIS-MONTHAN AIR FORCE BASE
NAS    - NAVAL AIR STATION
         EL CENTRO NAS IS EL CENTRO NAVAL AIR STATION
N/A    - NOT AVAILABLE





USA.gov is the U.S. government's official web portal to all federal, state and local government web resources and services.